Location: The Saddle
(36.8333°N, 80.3417°W)
Time: 06:17:55
(UTC-05:00)

Vanguard 2 Rocket - Pass Details

Date: 10 December 2023
Orbit: 555 x 3309 km, 32.9° (Epoch: 02 March)

Event Time Altitude Azimuth Distance (km) Brightness Sun altitude
Rises 13:47:41 0° 247° (WSW) 5,430 11.5 26.3°
Reaches altitude 10° 13:50:43 10° 245° (WSW) 4,733 11.4 26.0°
Maximum altitude 14:05:26 72° 164° (SSE) 3,099 10.2 24.7°
Drops below altitude 10° 14:25:40 10° 86° (E) 6,237 10.9 22.7°
Sets 14:30:23 0° 85° (E) 7,161 11.1 22.2°
